Content
SEND FEEDBACK

Daily
Averages
Monthly
Summary
United Kingdom

WINCHESTER, ENGLAND


Home > Europe > United Kingdom > England
Elevation: 297 feet     Latitude: 51 09N     Longitude: 001 34W

WEATHER
 
SELECT A DAY
Number of Records: 58,766;   Date Range: 10/20/98 - 7/29/14
 
SHARE

PRINT THIS DATA

[ ← Previous Day ]
WEATHER ALMANAC - JANUARY 31, 2013
[ Next Day → ]
[ °C ]   °F
Weather ElementAverageHighLow
Temperature47.5 °F50 °F (11:50 am)44 °F (11:50 pm)
Dewpoint38.9 °F45 °F (5:50 am)33.8 °F (12:50 pm)
Humidity70.7 %87 % (1:50 am)49 % (2:50 pm)
Barometer29.90 in29.98 in (1:50 am)29.83 in (5:50 am)
Wind Speed16.2 mph24.2 mph (1:50 pm)
Wind Gust38 mph (11:50 am)
Weather ElementAverage
Visibility7.4 mi
Wind DirectionWSW (242 °)

Weather ElementTotal
Precipitation---
Heating Degree Days18 (Base 65)
Averaged from 30 records on January 31, 2013
WEATHER CONDITIONS BREAKOUT
WIND DIRECTION BREAKOUT
WEATHER BY HOUR - JANUARY 31, 2013
[ °C ]   °F
Local TimeTemperatureDewpointHumidityBarometerVisibilityWind DirectionWind SpeedGust SpeedPrecipitationEventsConditions
1:50 AM44.6 °F41.0 °F87 %29.98 in6.2 miSW (220°)12.7 mphMostly Cloudy
2:50 AM48.0 °F42.0 °F72 %29.98 in12.0 miSW (220°)20.7 mphScattered Clouds
2:50 AM48.2 °F42.8 °F82 %29.95 in6.2 miSW (220°)20.7 mphMostly Cloudy
3:50 AM48.2 °F42.8 °F82 %29.89 in6.2 miSW (220°)19.6 mphScattered Clouds
4:50 AM48.2 °F42.8 °F82 %29.86 in6.2 miSW (220°)21.9 mph35.7 mphScattered Clouds
5:50 AM48.0 °F45.0 °F86 %29.85 in3.0 miSW (220°)17.3 mphMostly Cloudy
5:50 AM48.2 °F44.6 °F87 %29.83 inSW (220°)17.3 mph28.8 mphScattered Clouds
6:50 AM48.2 °F44.6 °F87 %29.83 in6.2 miWSW (240°)16.1 mphMostly Cloudy
7:50 AM48.2 °F42.8 °F82 %29.83 in6.2 miWSW (250°)16.1 mphScattered Clouds
8:50 AM48.0 °F40.0 °F64 %29.86 in9.0 miWSW (250°)16.1 mphPartly Cloudy
8:50 AM48.2 °F39.2 °F71 %29.83 in6.2 miWSW (250°)16.1 mphScattered Clouds
9:50 AM48.2 °F39.2 °F71 %29.86 in6.2 miWSW (250°)20.7 mph32.2 mphPartly Cloudy
10:50 AM48.2 °F41.0 °F76 %29.89 in6.2 miWest (260°)17.3 mphScattered Clouds
11:50 AM49.0 °F36.0 °F50 %29.91 in12.0 miWest (270°)21.9 mphPartly Cloudy
11:50 AM50.0 °F35.6 °F58 %29.89 in6.2 miWest (270°)21.9 mph38.0 mphScattered Clouds
12:50 PM50.0 °F33.8 °F54 %29.92 in6.2 miWest (270°)21.9 mph34.5 mphScattered Clouds
1:50 PM50.0 °F33.8 °F54 %29.92 in6.2 miWest (270°)24.2 mph38.0 mphMostly Cloudy
2:50 PM49.0 °F36.0 °F49 %29.93 in12.0 miWest (260°)18.4 mphPartly Cloudy
2:50 PM50.0 °F35.6 °F58 %29.92 in6.2 miWest (260°)18.4 mphScattered Clouds
3:50 PM48.2 °F33.8 °F58 %29.92 in6.2 miWest (260°)18.4 mphScattered Clouds
5:50 PM47.0 °F36.0 °F57 %29.96 in12.0 miWSW (240°)13.8 mphScattered Clouds
5:50 PM46.4 °F37.4 °F71 %29.95 in6.2 miWSW (240°)13.8 mphMostly Cloudy
6:50 PM46.4 °F37.4 °F71 %29.95 in6.2 miWSW (240°)13.8 mphMostly Cloudy
7:50 PM46.4 °F37.4 °F71 %29.92 in6.2 miWSW (240°)13.8 mphMostly Cloudy
8:50 PM46.0 °F37.0 °F63 %29.95 in13.0 miWSW (240°)10.4 mphOvercast
8:50 PM46.4 °F37.4 °F71 %29.92 in6.2 miWSW (240°)10.4 mphOvercast
9:50 PM44.6 °F37.4 °F76 %29.92 in6.2 miSW (230°)6.9 mphScattered Clouds
10:50 PM44.6 °F37.4 °F76 %29.89 in6.2 miSW (230°)9.2 mphMostly Cloudy
11:50 PM44.0 °F39.0 °F75 %29.90 in12.0 miSW (230°)8.1 mphMostly Cloudy
11:50 PM44.6 °F39.2 °F81 %29.89 in6.2 miSW (230°)8.1 mphScattered Clouds
Hourly data recorded from EGVP, located miles away from Winchester, England







STORIES FROM OUR PARTNERS